{"data":{"norad_id":49400,"epoch":"2026-09-20T20:26:07.071936Z","epoch_age_seconds":76987,"freshness":"FRESH","line1":"1 49400U 21102F   26263.85147074  .00006835  00000+0  21351-3 0  9994","line2":"2 49400  97.3150 308.7334 0010219 210.4854 149.5796 15.33449978268841","mean_motion":15.33449978,"eccentricity":0.0010219,"inclination_deg":97.315,"raan_deg":308.7334,"arg_perigee_deg":210.4854,"mean_anomaly_deg":149.5796,"bstar":0.00021351,"rev_number":26884,"period_min":93.90589981149,"perigee_km":458.53482185757,"apogee_km":472.52190512747,"semimajor_km":6843.6653634925,"source":"CELESTRAK","updated_at":"2026-09-21T09:00:08.079489Z"}}